NAVSTAR 43 (USA 132) 1 24876U 97035A 24109.44876544 .00000066 00000-0 00000-0 0 9991 2 24876 55.6507 129.4662 0077394 51.8789 308.8736 2.00565657196114 NAVSTAR 46 (USA 145) 1 25933U 99055A 24109.25404939 -.00000078 00000-0 00000-0 0 9998 2 25933 52.1108 329.8024 0124691 149.1604 356.4644 2.00554587179732 NAVSTAR 47 (USA 150) 1 26360U 00025A 24109.46603591 -.00000068 00000-0 00000-0 0 9999 2 26360 54.6218 51.3154 0037911 214.3744 245.7448 2.00552775175437 NAVSTAR 48 (USA 151) 1 26407U 00040A 24109.54216132 -.00000040 00000-0 00000-0 0 9998 2 26407 55.0942 246.5563 0145478 294.4737 62.0929 2.00559415174104 NAVSTAR 49 (USA 154) 1 26605U 00071A 24109.79801678 .00000069 00000-0 00000-0 0 9994 2 26605 55.2520 126.1573 0154843 259.3243 205.7291 2.00554618171688 NAVSTAR 50 (USA 156) 1 26690U 01004A 24109.70035065 -.00000046 00000-0 00000-0 0 9991 2 26690 54.5608 61.6839 0002627 343.2438 185.2751 1.91588673168417 NAVSTAR 51 (USA 166) 1 27663U 03005A 24109.77276411 -.00000041 00000-0 00000-0 0 9999 2 27663 55.1335 246.3582 0138006 47.2933 251.8781 2.00552997155477 NAVSTAR 52 (USA 168) 1 27704U 03010A 24109.34957146 -.00000106 00000-0 00000-0 0 9997 2 27704 55.1054 356.2056 0253789 325.7937 245.9033 2.00560794154266 NAVSTAR 53 (USA 175) 1 28129U 03058A 24109.13718398 -.00000062 00000-0 00000-0 0 9993 2 28129 54.4583 53.8219 0069480 337.4499 22.2276 2.00573988148946 NAVSTAR 54 (USA 177) 1 28190U 04009A 24109.88557760 -.00000040 00000-0 00000-0 0 9990 2 28190 55.5048 307.4038 0095962 145.1945 34.6380 2.00560880147111 NAVSTAR 55 (USA 178) 1 28361U 04023A 24109.65044118 .00000064 00000-0 00000-0 0 9994 2 28361 54.3984 118.6778 0152143 279.0961 266.4986 2.00568783145205 NAVSTAR 56 (USA 180) 1 28474U 04045A 24109.82805565 -.00000104 00000-0 00000-0 0 9999 2 28474 55.4335 356.5851 0162664 290.8663 252.7574 2.00560467142597 NAVSTAR 57 (USA 183) 1 28874U 05038A 24109.60483678 -.00000037 00000-0 00000+0 0 9993 2 28874 55.5519 304.8741 0136269 283.9187 77.7940 2.00559708135990 NAVSTAR 58 (USA 190) 1 29486U 06042A 24109.73799317 -.00000007 00000-0 00000-0 0 9991 2 29486 54.6758 182.6421 0103496 37.3544 320.7666 2.00559330128557 NAVSTAR 59 (USA 192) 1 29601U 06052A 24109.17151705 -.00000039 00000-0 00000-0 0 9997 2 29601 55.1618 245.3562 0086645 82.1695 278.7808 2.00564066127563 NAVSTAR 60 (USA 196) 1 32260U 07047A 24109.47363519 .00000057 00000-0 00000-0 0 9997 2 32260 53.5760 112.7218 0152888 74.3307 287.3847 2.00567531120976 NAVSTAR 61 (USA 199) 1 32384U 07062A 24109.55163164 -.00000037 00000-0 00000-0 0 9993 2 32384 55.6895 305.7306 0026914 147.5616 35.9625 2.00571403119672 NAVSTAR 62 (USA 201) 1 32711U 08012A 24109.89194042 -.00000003 00000-0 00000-0 0 9992 2 32711 54.4474 181.4136 0185520 238.2233 120.0128 2.00566404117923 NAVSTAR 64 (USA 206) 1 35752U 09043A 24109.51795573 -.00000050 00000-0 00000-0 0 9992 2 35752 55.6268 58.6557 0055523 70.0255 35.5142 2.00572912107524 NAVSTAR 65 (USA 213) 1 36585U 10022A 24109.67832517 -.00000044 00000-0 00000-0 0 9996 2 36585 54.4691 240.4018 0115853 61.7788 282.0691 2.00573811101756 NAVSTAR 66 (USA 232) 1 37753U 11036A 24109.41495161 -.00000109 00000-0 00000-0 0 9994 2 37753 56.7627 2.6675 0128630 57.4793 157.0089 2.00525122 93439 NAVSTAR 67 (USA 239) 1 38833U 12053A 24108.07250263 -.00000018 00000-0 00000-0 0 9996 2 38833 53.5119 175.9663 0149986 55.3126 306.1493 2.00557687 83576 NAVSTAR 68 (USA 242) 1 39166U 13023A 24109.43209239 -.00000034 00000-0 00000-0 0 9990 2 39166 55.1650 300.9860 0123948 44.1379 316.8576 2.00563241 80041 NAVSTAR 69 (USA 248) 1 39533U 14008A 24109.43467775 -.00000011 00000-0 00000-0 0 9998 2 39533 53.5961 181.5000 0071834 218.8939 140.6415 2.00564934 73848 NAVSTAR 70 (USA 251) 1 39741U 14026A 24109.21320467 -.00000110 00000-0 00000-0 0 9991 2 39741 56.7104 2.1918 0032282 316.4360 43.3438 2.00572764 72692 NAVSTAR 71 (USA 256) 1 40105U 14045A 24109.30541034 .00000063 00000-0 00000-0 0 9999 2 40105 54.9044 119.9994 0024615 116.7946 243.5005 2.00562168 70233 NAVSTAR 72 (USA 258) 1 40294U 14068A 24109.17527513 -.00000040 00000-0 00000-0 0 9990 2 40294 56.3731 61.5814 0051401 59.9602 300.5279 2.00555933 69365 NAVSTAR 73 (USA 260) 1 40534U 15013A 24109.31021727 -.00000046 00000-0 00000-0 0 9996 2 40534 53.3671 236.8786 0087363 29.7557 330.7088 2.00569075 65986 NAVSTAR 74 (USA 262) 1 40730U 15033A 24108.97351994 -.00000033 00000-0 00000-0 0 9995 2 40730 54.6501 299.5076 0093886 18.9193 341.4369 2.00570233 64147 NAVSTAR 75 (USA 265) 1 41019U 15062A 24109.52863188 -.00000042 00000-0 00000-0 0 9993 2 41019 56.3545 61.4203 0094756 225.4409 133.7638 2.00562456 61994 NAVSTAR 76 (USA 266) 1 41328U 16007A 24108.61286387 .00000057 00000-0 00000-0 0 9990 2 41328 55.1012 120.8560 0079272 238.1834 121.0840 2.00564986 59989